This demonstration page uses our WeatherBlox Daily Observations layout. Learn more.

40.92945, -100.16068

Hourly Observations for March 14, 2017

Temp ( °F °C ) Dew Point ( °F °C ) Humidity (%) Winds ( mph kmh ) Pressure ( in mb ) Visibility ( mi km ) Precip ( " mm )
12:15 am 00:15 Cloudy 24 -4.3 12 -11.2 59 59 E 10 17 30.39 1029 10 16.0934 0 0
12:35 am 00:35 Cloudy 24 -4.4 12 -11.2 59 59 ESE 9 15 30.39 1029 10 16.0934 0 0
12:55 am 00:55 Cloudy 24 -4.7 12 -11 62 62 E 12 19 30.39 1029 10 16.0934 0 0
1:15 am 01:15 Cloudy 23 -4.9 13 -10.5 65 65 ESE 10 17 30.39 1029 10 16.0934 0 0
1:35 am 01:35 Cloudy 23 -5 13 -10.3 67 67 ESE 9 15 30.39 1029 10 16.0934 0 0
1:55 am 01:55 Cloudy 23 -5 14 -10 68 68 ESE 10 17 30.36 1028 10 16.0934 0 0
2:15 am 02:15 Cloudy 23 -5 15 -9.7 70 70 SE 13 20 30.39 1029 10 16.0934 0 0
2:35 am 02:35 Cloudy 22 -5.5 15 -9.5 74 74 SE 8 13 30.36 1028 10 16.0934 0 0
2:55 am 02:55 Cloudy 22 -5.5 15 -9.3 75 75 SE 12 19 30.36 1028 10 16.0934 0 0
3:15 am 03:15 Cloudy 22 -5.5 16 -9.1 76 76 ESE 12 19 30.36 1028 10 16.0934 0 0
3:35 am 03:35 Cloudy 22 -5.7 16 -9 78 78 SE 9 15 30.36 1028 10 16.0934 0 0
3:55 am 03:55 Cloudy 22 -5.8 16 -9 78 78 SE 12 19 30.36 1028 10 16.0934 0 0
4:15 am 04:15 Cloudy 22 -5.7 16 -9 78 78 SE 10 17 30.36 1028 10 16.0934 0 0
4:35 am 04:35 Cloudy 22 -5.8 16 -9 78 78 SE 9 15 30.36 1028 10 16.0934 0 0
4:55 am 04:55 Cloudy 21 -5.9 16 -8.9 80 80 SE 12 19 30.36 1028 10 16.0934 0 0
5:15 am 05:15 Cloudy 21 -6 16 -8.9 80 80 SE 9 15 30.33 1027 10 16.0934 0 0
5:35 am 05:35 Cloudy 21 -6.2 16 -9 81 81 ESE 9 15 30.36 1028 10 16.0934 0 0
5:55 am 05:55 Cloudy 21 -6.1 16 -8.8 81 81 SE 10 17 30.36 1028 10 16.0934 0 0
6:15 am 06:15 Cloudy 21 -6.1 16 -8.8 81 81 SE 10 17 30.36 1028 10 16.0934 0 0
6:35 am 06:35 Cloudy 21 -6.2 16 -8.8 82 82 SE 9 15 30.36 1028 10 16.0934 0 0
6:55 am 06:55 Cloudy 21 -6.2 16 -8.8 82 82 SE 10 17 30.36 1028 10 16.0934 0 0
7:15 am 07:15 Cloudy 21 -6.1 16 -8.7 82 82 ESE 10 17 30.36 1028 10 16.0934 0 0
7:35 am 07:35 Cloudy 21 -6.2 16 -8.7 83 83 ESE 10 17 30.36 1028 10 16.0934 0 0
7:55 am 07:55 Cloudy 21 -6.2 16 -8.7 83 83 SE 9 15 30.42 1030 10 16.0934 0 0
8:15 am 08:15 Cloudy 21 -6.2 17 -8.6 83 83 SE 10 17 30.36 1028 10 16.0934 0 0
8:35 am 08:35 Cloudy 21 -6.1 17 -8.6 83 83 ESE 10 17 30.42 1030 10 16.0934 0 0
8:55 am 08:55 Cloudy 21 -6.1 17 -8.6 83 83 ESE 12 19 30.42 1030 10 16.0934 0 0
9:15 am 09:15 Cloudy 21 -6 17 -8.6 82 82 ESE 10 17 30.39 1029 10 16.0934 0 0
9:35 am 09:35 Cloudy 22 -5.7 17 -8.5 81 81 ESE 12 19 30.39 1029 10 16.0934 0 0
9:55 am 09:55 Cloudy 22 -5.5 17 -8.5 80 80 SE 10 17 30.42 1030 10 16.0934 0 0
10:15 am 10:15 Cloudy 23 -5.1 17 -8.5 77 77 ESE 12 19 30.42 1030 10 16.0934 0 0
10:35 am 10:35 Cloudy 23 -4.8 17 -8.5 76 76 SE 12 19 30.42 1030 10 16.0934 0 0
10:55 am 10:55 Cloudy 25 -4 17 -8.1 73 73 SE 10 17 30.42 1030 10 16.0934 0 0
11:15 am 11:15 Cloudy 25 -3.8 17 -8.1 72 72 SSE 12 19 30.42 1030 10 16.0934 0 0
11:35 am 11:35 Cloudy 26 -3.2 17 -8.1 69 69 SE 8 13 30.42 1030 10 16.0934 0 0
11:55 am 11:55 Cloudy 28 -2.5 18 -8 66 66 ESE 10 17 30.39 1029 10 16.0934 0 0
12:15 pm 12:15 Cloudy 28 -2.1 17 -8.1 64 64 SE 10 17 30.39 1029 10 16.0934 0 0
12:35 pm 12:35 Cloudy 29 -1.4 18 -8 61 61 SE 9 15 30.39 1029 10 16.0934 0 0
12:55 pm 12:55 Cloudy 30 -1 18 -7.8 60 60 SSE 8 13 30.39 1029 10 16.0934 0 0
1:15 pm 13:15 Cloudy 31 -0.4 18 -7.6 59 59 SSE 9 15 30.39 1029 10 16.0934 0 0
1:35 pm 13:35 Cloudy 32 -0.1 18 -7.6 57 57 SSE 7 11 30.39 1029 10 16.0934 0 0
1:55 pm 13:55 Cloudy 33 0.3 19 -7.5 56 56 ESE 8 13 30.36 1028 10 16.0934 0 0
2:15 pm 14:15 Cloudy 33 0.7 19 -7.4 55 55 SSE 8 13 30.36 1028 10 16.0934 0 0
2:35 pm 14:35 Cloudy 34 1 19 -7.4 54 54 SSE 9 15 30.36 1028 10 16.0934 0 0
2:55 pm 14:55 Cloudy 34 1.2 19 -7.5 53 53 SE 9 15 30.36 1028 10 16.0934 0 0
3:15 pm 15:15 Cloudy 35 1.5 19 -7.3 52 52 SE 6 9 30.36 1028 10 16.0934 0 0
3:35 pm 15:35 Cloudy 35 1.7 19 -7.5 51 51 SE 8 13 30.36 1028 10 16.0934 0 0
3:55 pm 15:55 Cloudy 36 2 19 -7.4 50 50 SE 8 13 30.36 1028 10 16.0934 0 0
4:15 pm 16:15 Cloudy 36 2.2 19 -7.3 50 50 ESE 8 13 30.36 1028 10 16.0934 0 0
4:35 pm 16:35 Cloudy 36 2.1 19 -7.5 49 49 SE 5 7 30.36 1028 10 16.0934 0 0
4:55 pm 16:55 Cloudy 36 2.3 19 -7.5 49 49 SSE 6 9 30.36 1028 10 16.0934 0 0
5:15 pm 17:15 Cloudy 36 2.3 19 -7.4 49 49 SE 7 11 30.36 1028 10 16.0934 0 0
5:35 pm 17:35 Cloudy 37 2.5 19 -7.3 49 49 E 7 11 30.36 1028 10 16.0934 0 0
5:55 pm 17:55 Cloudy 37 2.6 19 -7.3 48 48 SSE 9 15 30.36 1028 10 16.0934 0 0
6:15 pm 18:15 Cloudy 37 2.7 19 -7.3 48 48 SE 8 13 30.36 1028 10 16.0934 0 0
6:35 pm 18:35 Cloudy 37 2.7 19 -7.3 48 48 SE 8 13 30.36 1028 10 16.0934 0 0
6:55 pm 18:55 Cloudy 37 2.6 19 -7.2 49 49 ESE 9 15 30.36 1028 10 16.0934 0 0
7:15 pm 19:15 Cloudy 33 0.4 20 -6.4 61 61 ESE 13 20 30.36 1028 10 16.0934 0 0
7:35 pm 19:35 Cloudy 32 -0.2 20 -6.5 63 63 E 13 20 30.42 1030 10 16.0934 0 0
7:55 pm 19:55 Partly Cloudy 30 -1 20 -6.6 66 66 ESE 10 17 30.42 1030 10 16.0934 0 0
8:15 pm 20:15 Clear 29 -1.5 20 -6.5 69 69 E 14 22 30.42 1030 10 16.0934 0 0
8:35 pm 20:35 Clear 28 -2.2 20 -6.4 73 73 ESE 14 22 30.42 1030 10 16.0934 0 0
8:55 pm 20:55 Clear 27 -2.6 21 -6.3 76 76 ESE 12 19 30.42 1030 10 16.0934 0 0
9:15 pm 21:15 Clear 27 -2.8 21 -6.3 77 77 ESE 13 20 30.45 1031 10 16.0934 0 0
9:35 pm 21:35 Clear 27 -3 21 -6.2 79 79 ESE 10 17 30.45 1031 10 16.0934 0 0
9:55 pm 21:55 Clear 27 -3 21 -6.1 79 79 ESE 13 20 30.45 1031 10 16.0934 0 0
10:15 pm 22:15 Clear 26 -3.1 21 -6.1 80 80 SE 10 17 30.45 1031 10 16.0934 0 0
10:35 pm 22:35 Partly Cloudy 26 -3.3 21 -6.2 81 81 SE 13 20 30.45 1031 10 16.0934 0 0
10:55 pm 22:55 Cloudy 26 -3.2 21 -6.2 80 80 SE 14 22 30.48 1032 10 16.0934 0 0
11:15 pm 23:15 Cloudy 26 -3.1 21 -6.1 80 80 SE 9 15 30.48 1032 10 16.0934 0 0
11:35 pm 23:35 Cloudy 26 -3.2 21 -6.2 80 80 SSE 9 15 30.48 1032 10 16.0934 0 0
11:55 pm 23:55 Cloudy 26 -3.1 21 -6.2 79 79 SSE 12 19 30.45 1031 10 16.0934 0 0

Powered by AerisWeather